Regional Weather Roundup
Issued by NWS

Home | Current Version | Previous Version | Text Only | Print | Product List | Glossary Off
Versions: 1 2 3 4 5 6 7 8 9 10 11 12 13 14 15 16 17 18 19 20 21 22 23 24 25 26 27 28 29 30 31 32 33 34 35 36 37 38 39 40 41 42 43 44 45 46 47 48 49 50

000
ASUS45 KPSR 270110
RWRAZ

ARIZONA REGIONAL HOURLY WEATHER ROUNDUP
NATIONAL WEATHER SERVICE PHOENIX AZ
600 PM MST THU MAR 26 2015

NOTE: FAIR INDICATES FEW OR NO CLOUDS BELOW 12,000 FEET WITH NO
SIGNIFICANT WEATHER AND/OR OBSTRUCTIONS TO VISIBILITY.

AZZ001>003-036-270200-
NORTHWEST ARIZONA

CITY           SKY/WX    TMP DP  RH WIND       PRES   REMARKS
BULLHEAD CITY  SUNNY     84  19   9 N12       30.04S
KINGMAN        CLEAR     74  19  12 N12       30.16R
$$

AZZ004>008-015-016-018-270200-
NORTH CENTRAL ARIZONA

CITY           SKY/WX    TMP DP  RH WIND       PRES   REMARKS
GRAND CANYON   MOCLDY    62  14  15 NE9       30.32R
WILLIAMS       CLEAR     61  14  16 N8        30.37R
PRESCOTT       PTCLDY    70  13  11 N5        30.22R
FLAGSTAFF      CLEAR     59  11  15 E7        30.32R
PAYSON         CLEAR     70  18  13 W5        30.23R
PAGE           CLEAR     67  17  14 CALM      30.23F
$$

AZZ009>014-017-270200-
NORTHEAST ARIZONA

CITY           SKY/WX    TMP DP  RH WIND       PRES   REMARKS
WINSLOW        CLEAR     68  10  10 NE7       30.25S
SAINT JOHNS    FAIR      64   8  11 NW10      30.26R
WINDOW ROCK    CLEAR     62   7  11 N10       30.28R
SHOW LOW       FAIR      57   9  14 N9        30.32R
$$

AZZ023-270200-
GREATER PHOENIX AREA

CITY           SKY/WX    TMP DP  RH WIND       PRES   REMARKS
PHOENIX        MOCLDY    88  17   7 W7        29.99S
BUCKEYE        CLEAR     82  32  16 S6        30.01S
GLENDALE       PTCLDY    88  19   8 VRB5      30.01S
DEER VALLEY    PTCLDY    85  14   7 CALM      30.01S
SCOTTSDALE     MOCLDY    86  17   8 W5        30.02S
MESA-FALCON    PTCLDY    86  16   7 SW7       30.01S
MESA-GATEWAY   PTCLDY    84  19   9 W7        30.03R
CHANDLER       PTCLDY    86  16   7 SW7       30.01R
$$

AZZ027-028-270200-
SOUTHWEST MARICOPA COUNTY AND PINAL COUNTY

CITY           SKY/WX    TMP DP  RH WIND       PRES   REMARKS
CASA GRANDE    CLEAR     84  25  11 N6        30.01S
$$

AZZ503-504-507>509-270200-
SOUTHEAST ARIZONA

CITY           SKY/WX    TMP DP  RH WIND       PRES   REMARKS
TUCSON         CLEAR     84  19   9 N6        30.07S
RYAN FIELD       N/A     84  27  12 MISG      30.06S
NOGALES        CLEAR     78  23  13 NW12G17   30.10S
DOUGLAS        CLEAR     74  21  13 N8        30.15R
SAFFORD        CLEAR     76  18  11 S7        30.10S
$$

AZZ020-021-025-026-031-270200-
SOUTHWEST ARIZONA

CITY           SKY/WX    TMP DP  RH WIND       PRES   REMARKS
YUMA           MOSUNNY   92  26   9 NE6       29.97S
$$

CAZ031-033-041-043-047-048-061-270200-
SOUTHERN CALIFORNIA

CITY           SKY/WX    TMP DP  RH WIND       PRES   REMARKS
DOWNTOWN L.A.  SUNNY     84  35  17 MISG      29.99R
L.A. AIRPORT   SUNNY     76  39  26 W15       30.00S
SAN DIEGO      SUNNY     79  49  34 NW12      29.99S
BURBANK        SUNNY     88  28  11 S6        30.00S
ONTARIO        MOSUNNY   89  28  11 W3        30.00S
RIVERSIDE      SUNNY     92  24   8 NE5       29.99S
PALM SPRINGS   SUNNY     93  22   7 S5        30.00S
EL CENTRO NAS  MOSUNNY   90  20   7 CALM      29.98S
IMPERIAL       SUNNY     88  32  13 W7        29.97S
BLYTHE         SUNNY     87  28  12 E7        30.01R
NEEDLES        SUNNY     88  13   6 N6        30.03F
$$

NVZ020-UTZ003-270200-
SOUTHERN NEVADA-UTAH

CITY           SKY/WX    TMP DP  RH WIND       PRES   REMARKS
LAS VEGAS      MOSUNNY   79  22  12 VRB7      30.09F
SALT LAKE CITY MOCLDY    58  27  30 N7        30.32F
$$

NMZ009-TXZ055-270200-
NEW MEXICO-WEST TEXAS

CITY           SKY/WX    TMP DP  RH WIND       PRES   REMARKS
ALBUQUERQUE    PTCLDY    62  18  18 S7        30.20S
EL PASO        CLEAR     65  24  21 CALM      30.19R
$$


........................KEY........................
SKY/WX - SKY CONDITION/WEATHER
TMP    - TEMPERATURE IN FAHRENHEIT
DP     - DEW POINT IN FAHRENHEIT
RH     - RELATIVE HUMIDITY IN PERCENT
WIND   - DIRECTION AND SPEED IN MILES PER HOUR (MPH)
VRB    - VARIABLE WIND DIRECTION
PRES   - MEAN SEA LEVEL PRESSURE IN INCHES OF MERCURY
         F - FALLING PRESSURE   R - RISING PRESSURE
         S - STEADY PRESSURE
VSB    - VISIBILITY IN MILES
HX     - HEAT INDEX IN FAHRENHEIT
WCI    - WIND CHILL INDEX IN FAHRENHEIT
TC     - TEMPERATURE IN CELSIUS WHICH IS ALSO KNOWN AS
         TEMPERATURE IN CENTIGRADE
AFB    - AIR FORCE BASE
         LUKE AFB IS LUKE AIR FORCE BASE
         DAVIS-MONTHAN IS DAVIS-MONTHAN AIR FORCE BASE
NAS    - NAVAL AIR STATION
         EL CENTRO NAS IS EL CENTRO NAVAL AIR STATION
N/A    - NOT AVAILABLE



USA.gov is the U.S. government's official web portal to all federal, state and local government web resources and services.